This demonstration page uses our WeatherBlox Daily Observations layout. Learn more.

Left ArrowRight Arrow

36.17497, -115.13722

Hourly Observations for August 11, 2017

Temp ( °F °C ) Dew Point ( °F °C ) Humidity (%) Winds ( mph kmh ) Pressure ( in mb ) Visibility ( mi km ) Precip ( " mm )
12:53 am 00:53 Clear 90 32.2 46 7.8 22 22 SSE 6 9 29.83 1010 10 16.0934 N/A
1:53 am 01:53 Clear 90 32.2 55 12.8 31 31 SE 10 17 29.84 1011 10 16.0934 N/A
2:53 am 02:53 Clear 89 31.7 58 14.4 35 35 SE 10 17 29.85 1011 10 16.0934 N/A
3:53 am 03:53 Clear 88 31.1 58 14.4 36 36 SE 9 15 29.85 1011 10 16.0934 N/A
4:53 am 04:53 Clear 79 26.1 57 13.9 47 47 N N/A 29.87 1012 10 16.0934 N/A
5:53 am 05:53 Clear 87 30.6 55 12.8 34 34 SSE 7 11 29.89 1012 10 16.0934 N/A
6:53 am 06:53 Sunny 88 31.1 57 13.9 35 35 S 9 15 29.89 1012 10 16.0934 N/A
7:53 am 07:53 Sunny 89 31.7 59 15 36 36 S 12 19 29.9 1013 10 16.0934 N/A
8:53 am 08:53 Sunny 91 32.8 58 14.4 33 33 S 7 11 29.9 1013 10 16.0934 N/A
9:53 am 09:53 Sunny 93 33.9 59 15 32 32 ESE 6 9 29.9 1012 10 16.0934 N/A
10:53 am 10:53 Sunny 95 35 58 14.4 29 29 SE 9 15 29.88 1012 10 16.0934 N/A
11:53 am 11:53 Sunny 97 36.1 59 15 28 28 E 9 15 29.87 1011 10 16.0934 N/A
12:53 pm 12:53 Sunny 97 36.1 57 13.9 26 26 VRB 6 9 29.84 1011 10 16.0934 N/A
1:53 pm 13:53 Mostly Sunny 100 37.8 56 13.3 23 23 E 7 11 29.82 1010 10 16.0934 N/A
2:53 pm 14:53 Cloudy with Light Rain 93 33.9 64 17.8 38 38 S 15 24 29.8 1009 9 14.48406 0.04 1.016
3:45 pm 15:45 Sunny 92 33.3 62 16.7 37 37 NNW 21 33 29.68 1005 10 16.0934 N/A
3:53 pm 15:53 Partly Cloudy with Light Rain 90 32.2 63 17.2 41 41 NNW 12 19 29.81 1010 10 16.0934 N/A
4:53 pm 16:53 Partly Cloudy 95 35 59 15 30 30 SW 9 15 29.82 1010 10 16.0934 0.01 0.254
5:14 pm 17:14 Partly Cloudy 87 30.6 65 18.3 48 48 SSW 15 24 29.71 1006 10 16.0934 N/A
5:53 pm 17:53 Mostly Sunny 89 31.7 63 17.2 42 42 W 14 22 29.79 1009 10 16.0934 N/A
6:32 pm 18:32 Sunny with Thunderstorms 93 33.9 59 15 32 32 W 13 20 29.62 1003 10 16.0934 N/A
6:53 pm 18:53 Sunny with Nearby Thunderstorms 94 34.4 55 12.8 27 27 W 9 15 29.76 1008 10 16.0934 N/A
7:45 pm 19:45 Clear 94 34.4 56 13.3 28 28 W 3 6 29.62 1003 10 16.0934 N/A
7:53 pm 19:53 Clear 91 32.8 57 13.9 32 32 N N/A 29.77 1008 10 16.0934 N/A
8:53 pm 20:53 Clear 88 31.1 63 17.2 43 43 SE 6 9 29.78 1009 10 16.0934 N/A
9:53 pm 21:53 Clear 87 30.6 64 17.8 46 46 N N/A 29.79 1009 10 16.0934 N/A
10:53 pm 22:53 Clear 85 29.4 62 16.7 46 46 N N/A 29.79 1009 10 16.0934 N/A
11:53 pm 23:53 Clear 86 30 62 16.7 45 45 N 5 7 29.79 1009 10 16.0934 N/A

Powered by AerisWeather